Terminal Aerodrome Forecast
Issued by NWS Portland, ME

Home | Current Version | Previous Version | Text Only | Print | Product List | Glossary On
Versions: 1 2 3 4 5 6 7 8 9 10 11 12 13 14 15 16 17
000
FTUS41 KGYX 262126 AAB
TAFCON
TAF AMD
KCON 262126Z 2621/2718 15006KT 1/2SM -RA FG FEW010 BKN024 OVC035
     FM270600 36005KT 5SM -SHRA BR OVC025
     FM271200 35005KT P6SM BKN030=

USA.gov is the U.S. government's official web portal to all federal, state and local government web resources and services.